******** Week 359 almanac for PRN-1 ******** ID: 1 Health: 0 Eccentricity: 0.001559257507 Time of Applicability(s): 405504 Orbital Inclination(rad): 0.9583329256 Rate of Right Ascen(r/s): -8.011762293e-09 SQRT(A) (m 1/2): 5153.578125 Right Ascen at Week(rad): -3.0225335 Argument of Perigee(rad): 0.06580575349 Mean Anom(rad): 0.3545585371 Af0(s): 0.0002577566162 Af1(s/s): -7.275958e-12 week: 359 ******** Week 359 almanac for PRN-2 ******** ID: 2 Health: 0 Eccentricity: 0.01692581177 Time of Applicability(s): 405504 Orbital Inclination(rad): 0.963629953 Rate of Right Ascen(r/s): -7.817468486e-09 SQRT(A) (m 1/2): 5153.550781 Right Ascen at Week(rad): 3.098177179 Argument of Perigee(rad): -0.8162081079 Mean Anom(rad): 1.800795699 Af0(s): 3.69300415e-05 Af1(s/s): 7.275958e-12 week: 359 ******** Week 359 almanac for PRN-3 ******** ID: 3 Health: 0 Eccentricity: 0.006467819214 Time of Applicability(s): 405504 Orbital Inclination(rad): 0.9931231305 Rate of Right Ascen(r/s): -7.874613723e-09 SQRT(A) (m 1/2): 5153.584961 Right Ascen at Week(rad): -2.035780509 Argument of Perigee(rad): 1.201775078 Mean Anom(rad): -1.795991898 Af0(s): 0.0004401458008 Af1(s/s): -1.091394e-11 week: 359 ******** Week 359 almanac for PRN-4 ******** ID: 4 Health: 0 Eccentricity: 0.003717422485 Time of Applicability(s): 405504 Orbital Inclination(rad): 0.9705088981 Rate of Right Ascen(r/s): -7.714607058e-09 SQRT(A) (m 1/2): 5153.691406 Right Ascen at Week(rad): -0.9648323457 Argument of Perigee(rad): -2.882994054 Mean Anom(rad): 1.193454655 Af0(s): 3.617636719e-05 Af1(s/s): 3.637979e-12 week: 359 ******** Week 359 almanac for PRN-5 ******** ID: 5 Health: 0 Eccentricity: 0.005387783051 Time of Applicability(s): 405504 Orbital Inclination(rad): 0.9797007986 Rate of Right Ascen(r/s): -8.023191341e-09 SQRT(A) (m 1/2): 5153.655273 Right Ascen at Week(rad): -2.095482172 Argument of Perigee(rad): 1.416578453 Mean Anom(rad): 1.852581782 Af0(s): -0.0001816355103 Af1(s/s): 0 week: 359 ******** Week 359 almanac for PRN-6 ******** ID: 6 Health: 0 Eccentricity: 0.003868103027 Time of Applicability(s): 405504 Orbital Inclination(rad): 0.9872268919 Rate of Right Ascen(r/s): -7.691748963e-09 SQRT(A) (m 1/2): 5153.592285 Right Ascen at Week(rad): -3.072106246 Argument of Perigee(rad): -0.5755843461 Mean Anom(rad): -0.4671121304 Af0(s): -0.0004831052368 Af1(s/s): 0 week: 359 ******** Week 359 almanac for PRN-7 ******** ID: 7 Health: 0 Eccentricity: 0.02044773102 Time of Applicability(s): 405504 Orbital Inclination(rad): 0.9513341383 Rate of Right Ascen(r/s): -7.771752296e-09 SQRT(A) (m 1/2): 5153.570312 Right Ascen at Week(rad): 0.04371545642 Argument of Perigee(rad): -1.993248495 Mean Anom(rad): -1.340286128 Af0(s): -0.0001213415649 Af1(s/s): -3.637979e-12 week: 359 ******** Week 359 almanac for PRN-8 ******** ID: 8 Health: 0 Eccentricity: 0.01156187057 Time of Applicability(s): 405504 Orbital Inclination(rad): 0.9433646287 Rate of Right Ascen(r/s): -7.920329913e-09 SQRT(A) (m 1/2): 5153.631836 Right Ascen at Week(rad): 2.091229645 Argument of Perigee(rad): 0.5226530207 Mean Anom(rad): 1.489415576 Af0(s): 0.0003843739014 Af1(s/s): -3.637979e-12 week: 359 ******** Week 359 almanac for PRN-9 ******** ID: 9 Health: 0 Eccentricity: 0.00336265564 Time of Applicability(s): 405504 Orbital Inclination(rad): 0.9646486122 Rate of Right Ascen(r/s): -7.817468486e-09 SQRT(A) (m 1/2): 5153.735352 Right Ascen at Week(rad): -1.029058429 Argument of Perigee(rad): 2.06574182 Mean Anom(rad): 2.08735874 Af0(s): 0.000607461499 Af1(s/s): 0 week: 359 ******** Week 359 almanac for PRN-10 ******** ID: 10 Health: 0 Eccentricity: 0.01094532013 Time of Applicability(s): 405504 Orbital Inclination(rad): 0.99266773 Rate of Right Ascen(r/s): -7.874613723e-09 SQRT(A) (m 1/2): 5153.605469 Right Ascen at Week(rad): -2.038291204 Argument of Perigee(rad): -2.255371956 Mean Anom(rad): -2.786483967 Af0(s): -0.0004657707275 Af1(s/s): 0 week: 359 ******** Week 359 almanac for PRN-11 ******** ID: 11 Health: 0 Eccentricity: 0.002217769623 Time of Applicability(s): 405504 Orbital Inclination(rad): 0.9640853536 Rate of Right Ascen(r/s): -7.931758961e-09 SQRT(A) (m 1/2): 5153.526367 Right Ascen at Week(rad): -3.053228471 Argument of Perigee(rad): -2.294774589 Mean Anom(rad): 0.5981521396 Af0(s): -0.0003361387451 Af1(s/s): 1.455192e-11 week: 359 ******** Week 359 almanac for PRN-12 ******** ID: 12 Health: 0 Eccentricity: 0.009034156799 Time of Applicability(s): 405504 Orbital Inclination(rad): 0.958938129 Rate of Right Ascen(r/s): -7.886042771e-09 SQRT(A) (m 1/2): 5153.714844 Right Ascen at Week(rad): 1.161337682 Argument of Perigee(rad): 1.558975388 Mean Anom(rad): -1.994705327 Af0(s): -0.0004800905395 Af1(s/s): 0 week: 359 ******** Week 359 almanac for PRN-13 ******** ID: 13 Health: 0 Eccentricity: 0.009997844696 Time of Applicability(s): 405504 Orbital Inclination(rad): 0.9762073971 Rate of Right Ascen(r/s): -7.623174678e-09 SQRT(A) (m 1/2): 5153.629883 Right Ascen at Week(rad): -0.8539887515 Argument of Perigee(rad): 0.9962400031 Mean Anom(rad): 1.240827547 Af0(s): 0.0005418918335 Af1(s/s): 0 week: 359 ******** Week 359 almanac for PRN-14 ******** ID: 14 Health: 0 Eccentricity: 0.006701469421 Time of Applicability(s): 405504 Orbital Inclination(rad): 0.9423040248 Rate of Right Ascen(r/s): -8.057478483e-09 SQRT(A) (m 1/2): 5153.586914 Right Ascen at Week(rad): 1.106749163 Argument of Perigee(rad): -2.75215141 Mean Anom(rad): -2.156344433 Af0(s): 0.0005818365723 Af1(s/s): 3.637979e-12 week: 359 ******** Week 359 almanac for PRN-15 ******** ID: 15 Health: 0 Eccentricity: 0.01661586761 Time of Applicability(s): 405504 Orbital Inclination(rad): 0.9424658119 Rate of Right Ascen(r/s): -8.080336578e-09 SQRT(A) (m 1/2): 5153.643066 Right Ascen at Week(rad): -1.173038405 Argument of Perigee(rad): 1.499935104 Mean Anom(rad): 0.4930310128 Af0(s): 0.0003074991211 Af1(s/s): 3.637979e-12 week: 359 ******** Week 359 almanac for PRN-16 ******** ID: 16 Health: 0 Eccentricity: 0.0150475502 Time of Applicability(s): 405504 Orbital Inclination(rad): 0.9580572885 Rate of Right Ascen(r/s): -7.920329913e-09 SQRT(A) (m 1/2): 5153.583984 Right Ascen at Week(rad): 1.178324571 Argument of Perigee(rad): 0.929308107 Mean Anom(rad): 2.513908015 Af0(s): 0.0001703303955 Af1(s/s): 7.275958e-12 week: 359 ******** Week 359 almanac for PRN-17 ******** ID: 17 Health: 0 Eccentricity: 0.0126619339 Time of Applicability(s): 405504 Orbital Inclination(rad): 0.9591059081 Rate of Right Ascen(r/s): -7.783181343e-09 SQRT(A) (m 1/2): 5153.541016 Right Ascen at Week(rad): 2.195880391 Argument of Perigee(rad): -1.123003517 Mean Anom(rad): 1.415648552 Af0(s): -5.803292236e-05 Af1(s/s): -1.091394e-11 week: 359 ******** Week 359 almanac for PRN-18 ******** ID: 18 Health: 0 Eccentricity: 0.005740642548 Time of Applicability(s): 405504 Orbital Inclination(rad): 0.9721866896 Rate of Right Ascen(r/s): -7.851755628e-09 SQRT(A) (m 1/2): 5153.595215 Right Ascen at Week(rad): -3.077077827 Argument of Perigee(rad): -2.86222689 Mean Anom(rad): -0.5705670754 Af0(s): -0.0003278483276 Af1(s/s): 1.091394e-11 week: 359 ******** Week 359 almanac for PRN-19 ******** ID: 19 Health: 0 Eccentricity: 0.01112127304 Time of Applicability(s): 405504 Orbital Inclination(rad): 0.9583149493 Rate of Right Ascen(r/s): -7.783181343e-09 SQRT(A) (m 1/2): 5153.67041 Right Ascen at Week(rad): 2.239779356 Argument of Perigee(rad): 2.928926592 Mean Anom(rad): -3.046168639 Af0(s): 0.0005464138794 Af1(s/s): 0 week: 359 ******** Week 359 almanac for PRN-20 ******** ID: 20 Health: 255 Eccentricity: 0.000316619873 Time of Applicability(s): 405504 Orbital Inclination(rad): 0.9600706382 Rate of Right Ascen(r/s): -7.851755628e-09 SQRT(A) (m 1/2): 5153.649414 Right Ascen at Week(rad): -1.02343146 Argument of Perigee(rad): 1.168455188 Mean Anom(rad): 1.09107829 Af0(s): 1.507348633e-05 Af1(s/s): 2.546585e-11 week: 359 ******** Week 359 almanac for PRN-21 ******** ID: 21 Health: 0 Eccentricity: 0.0007290840149 Time of Applicability(s): 405504 Orbital Inclination(rad): 0.9625453807 Rate of Right Ascen(r/s): -8.194627053e-09 SQRT(A) (m 1/2): 5153.711426 Right Ascen at Week(rad): -2.029406399 Argument of Perigee(rad): -0.3574429902 Mean Anom(rad): -2.258751133 Af0(s): 0.0003188042358 Af1(s/s): 3.637979e-12 week: 359 ******** Week 359 almanac for PRN-22 ******** ID: 22 Health: 0 Eccentricity: 0.01210165024 Time of Applicability(s): 405504 Orbital Inclination(rad): 0.9575060141 Rate of Right Ascen(r/s): -7.908900866e-09 SQRT(A) (m 1/2): 5153.563965 Right Ascen at Week(rad): 1.18167566 Argument of Perigee(rad): -0.9943229017 Mean Anom(rad): 2.064501078 Af0(s): -3.240799561e-05 Af1(s/s): 3.637979e-12 week: 359 ******** Week 359 almanac for PRN-23 ******** ID: 23 Health: 0 Eccentricity: 0.006022930145 Time of Applicability(s): 405504 Orbital Inclination(rad): 0.9876763003 Rate of Right Ascen(r/s): -7.931758961e-09 SQRT(A) (m 1/2): 5153.658203 Right Ascen at Week(rad): -2.070363986 Argument of Perigee(rad): -2.737672968 Mean Anom(rad): -1.701452467 Af0(s): 0.0004876272827 Af1(s/s): 3.637979e-12 week: 359 ******** Week 359 almanac for PRN-24 ******** ID: 24 Health: 0 Eccentricity: 0.01789188385 Time of Applicability(s): 405504 Orbital Inclination(rad): 0.9353292059 Rate of Right Ascen(r/s): -7.966046103e-09 SQRT(A) (m 1/2): 5153.593262 Right Ascen at Week(rad): -0.06466762663 Argument of Perigee(rad): 1.13437355 Mean Anom(rad): -0.3579444551 Af0(s): -8.29041748e-05 Af1(s/s): 1.455192e-11 week: 359 ******** Week 359 almanac for PRN-25 ******** ID: 25 Health: 0 Eccentricity: 0.01294088364 Time of Applicability(s): 405504 Orbital Inclination(rad): 0.9473433914 Rate of Right Ascen(r/s): -8.023191341e-09 SQRT(A) (m 1/2): 5153.661621 Right Ascen at Week(rad): 1.067534532 Argument of Perigee(rad): 1.157142079 Mean Anom(rad): -2.132235543 Af0(s): 0.0003481975342 Af1(s/s): -3.637979e-12 week: 359 ******** Week 359 almanac for PRN-26 ******** ID: 26 Health: 0 Eccentricity: 0.01099967957 Time of Applicability(s): 405504 Orbital Inclination(rad): 0.9281566473 Rate of Right Ascen(r/s): -8.240343243e-09 SQRT(A) (m 1/2): 5153.646484 Right Ascen at Week(rad): 0.9930596894 Argument of Perigee(rad): 0.7092792357 Mean Anom(rad): -2.953415232 Af0(s): -0.0002630323364 Af1(s/s): -7.275958e-12 week: 359 ******** Week 359 almanac for PRN-27 ******** ID: 27 Health: 0 Eccentricity: 0.01434612274 Time of Applicability(s): 405504 Orbital Inclination(rad): 0.9524846239 Rate of Right Ascen(r/s): -7.851755628e-09 SQRT(A) (m 1/2): 5153.615723 Right Ascen at Week(rad): 2.123227526 Argument of Perigee(rad): 0.8804738885 Mean Anom(rad): 1.589164399 Af0(s): -4.14520874e-05 Af1(s/s): -1.091394e-11 week: 359 ******** Week 359 almanac for PRN-28 ******** ID: 28 Health: 0 Eccentricity: 0.0004153251648 Time of Applicability(s): 405504 Orbital Inclination(rad): 0.9622757356 Rate of Right Ascen(r/s): -7.657461821e-09 SQRT(A) (m 1/2): 5153.740234 Right Ascen at Week(rad): 0.01793401807 Argument of Perigee(rad): 0.04209683704 Mean Anom(rad): -1.045460338 Af0(s): -0.0004650170532 Af1(s/s): 7.275958e-12 week: 359 ******** Week 359 almanac for PRN-29 ******** ID: 29 Health: 0 Eccentricity: 0.003366947174 Time of Applicability(s): 405504 Orbital Inclination(rad): 0.9617664061 Rate of Right Ascen(r/s): -7.726036106e-09 SQRT(A) (m 1/2): 5153.714844 Right Ascen at Week(rad): 2.212593516 Argument of Perigee(rad): 2.738737317 Mean Anom(rad): 1.458802997 Af0(s): -0.0002916719604 Af1(s/s): 7.275958e-12 week: 359 ******** Week 359 almanac for PRN-30 ******** ID: 30 Health: 0 Eccentricity: 0.008041381836 Time of Applicability(s): 405504 Orbital Inclination(rad): 0.9365875495 Rate of Right Ascen(r/s): -7.920329913e-09 SQRT(A) (m 1/2): 5153.704102 Right Ascen at Week(rad): 0.03477709717 Argument of Perigee(rad): -2.321660449 Mean Anom(rad): -1.502621442 Af0(s): 0.0001062680786 Af1(s/s): 1.455192e-11 week: 359 ******** Week 359 almanac for PRN-31 ******** ID: 31 Health: 0 Eccentricity: 0.01080751419 Time of Applicability(s): 405504 Orbital Inclination(rad): 0.9550971849 Rate of Right Ascen(r/s): -7.748894201e-09 SQRT(A) (m 1/2): 5153.722168 Right Ascen at Week(rad): 0.06790786144 Argument of Perigee(rad): 0.9389711374 Mean Anom(rad): -2.44381041 Af0(s): -0.0001303856567 Af1(s/s): 3.637979e-12 week: 359 ******** Week 359 almanac for PRN-32 ******** ID: 32 Health: 0 Eccentricity: 0.009324550629 Time of Applicability(s): 405504 Orbital Inclination(rad): 0.9677045895 Rate of Right Ascen(r/s): -7.760323248e-09 SQRT(A) (m 1/2): 5153.686523 Right Ascen at Week(rad): -1.012068168 Argument of Perigee(rad): -2.001070448 Mean Anom(rad): 2.169906831 Af0(s): -5.878659668e-05 Af1(s/s): 1.818989e-11 week: 359